Location: Brahman Valley
(40.6513°N, 111.8855°W)
Time: 09:05:55
(UTC+00:00)

Tiros 1 despin weight - Pass Details

Date: 12 May 2021
Orbit: 594 x 641 km, 48.2° (Epoch: 22 June)

Event Time Altitude Azimuth Distance (km) Brightness Sun altitude
Rises 04:14:55 0° 239° (WSW) 2,916 ? -16.6°
Reaches altitude 10° 04:17:13 10° 240° (WSW) 2,016 ? -16.9°
Maximum altitude 04:21:53 88° 333° (NNW) 644 ? -17.6°
Drops below altitude 10° 04:26:35 10° 60° (ENE) 2,033 ? -18.2°
Sets 04:28:56 0° 61° (ENE) 2,944 ? -18.5°
